Location: Baumgarten
(49.0970°N, 12.7493°E)
Time: 17:27:47
(UTC+00:00)

Cosmos 1606 - Pass Details

Date: 05 July 2020
Orbit: 504 x 527 km, 82.5° (Epoch: 11 August)

Event Time Altitude Azimuth Distance (km) Brightness Sun altitude
Rises 22:45:30 0° 347° (NNW) 2,665 8.0 -18.0°
Reaches altitude 10° 22:47:39 10° 344° (NNW) 1,774 6.6 -18.0°
Maximum altitude 22:51:29 61° 264° (W) 602 2.9 -18.1°
Enters shadow 22:52:36 41° 204° (SSW) 769 3.1 -18.1°
